Weather reports worldwide

Advertisment
Alsancak, Cyprus (17572): temperature & dewpoint: 09.12.2018 23:00:00 - 15.12.2018 23:00:00 (EET)Alsancak, Cyprus (17572): wind speed: 09.12.2018 23:00:00 - 15.12.2018 23:00:00 (EET)Alsancak, Cyprus (17572): wind direction: 09.12.2018 23:00:00 - 15.12.2018 23:00:00 (EET)Alsancak, Cyprus (17572): reduced air pressure: 09.12.2018 23:00:00 - 15.12.2018 23:00:00 (EET)Alsancak, Cyprus (17572): visibility: 09.12.2018 23:00:00 - 15.12.2018 23:00:00 (EET)
Date & Time tt [°C] td [°C] ff [km/h] ff [kn] dd ppp [hPa] vv [km]
15.12.2018 23:00:00 15,1 7,9 11 6 SSE 1023,5 10
15.12.2018 22:00:00 15,8 7,9 11 6 SSE 1023,5 10
15.12.2018 21:00:00 16,1 7,9 11 6 SSE 1023,5 10
15.12.2018 20:00:00 16,0 8,3 8 4 ENE 1023,5 10
15.12.2018 19:00:00 16,1 9,4 15 8 ENE 1023,5 10
15.12.2018 18:00:00 16,7 10,3 18 10 E 1023,5 10
15.12.2018 17:00:00 17,8 11,2 22 12 ENE 1023,5 10
15.12.2018 16:00:00 17,6 12,4 34 18 ENE 1023,7 10
15.12.2018 15:00:00 17,7 12,8 29 16 E 1023,7 10
15.12.2018 14:00:00 17,9 11,7 22 12 E 1024,0 10
15.12.2018 13:00:00 17,8 11,8 22 12 E 1025,8 10
15.12.2018 12:00:00 17,5 10,8 29 16 E 1025,8 10
15.12.2018 11:00:00 17,8 10,1 22 12 E 1026,0 10
15.12.2018 10:00:00 17,6 10,8 29 16 E 1026,3 10
15.12.2018 09:00:00 17,3 11,1 26 14 E 1026,6 10
15.12.2018 08:00:00 16,0 10,1 8 4 ESE 1025,9 10
15.12.2018 07:00:00 15,8 10,0 0 0 N 1025,8 10
15.12.2018 06:00:00 - - 11 6 E - -
15.12.2018 05:00:00 - - - - - - -
15.12.2018 04:00:00 - - - - - - -
15.12.2018 03:00:00 - - - - - - -
15.12.2018 02:00:00 16,0 11,2 8 4 ESE 1026,4 10
15.12.2018 01:00:00 - - - - - - -
15.12.2018 00:00:00 - - - - - - -
14.12.2018 23:00:00 15,6 11,0 8 4 SSE 1026,7 10
14.12.2018 22:00:00 - - 15 8 E - 10
14.12.2018 21:00:00 16,6 11,3 0 0 N 1026,7 10
14.12.2018 20:00:00 16,3 10,7 0 0 N - 10
14.12.2018 19:00:00 15,2 9,8 0 0 N 1026,6 10
14.12.2018 18:00:00 - - 0 0 N - 10
14.12.2018 17:00:00 15,5 -0,5 8 4 SE 1025,2 10
14.12.2018 16:00:00 16,7 10,5 8 4 ESE 1023,5 10
14.12.2018 15:00:00 17,7 9,5 8 4 ENE 1025,2 10
14.12.2018 14:00:00 18,2 10,3 26 14 ENE 1024,9 10
14.12.2018 13:00:00 18,0 8,8 8 4 ESE 1025,0 10
14.12.2018 12:00:00 17,3 7,7 9 5 NNE 1025,3 10
14.12.2018 11:00:00 16,9 7,0 0 0 N 1026,5 10
14.12.2018 10:00:00 15,1 6,6 0 0 N 1026,8 10
14.12.2018 09:00:00 15,5 3,9 0 0 N 1026,0 10
14.12.2018 08:00:00 12,5 3,2 11 6 S 1025,9 10
14.12.2018 07:00:00 11,0 2,7 11 6 S 1025,6 10
14.12.2018 06:00:00 11,3 1,8 11 6 SSW 1025,4 10
14.12.2018 05:00:00 11,7 1,5 11 6 SE 1025,1 10
14.12.2018 04:00:00 10,2 1,8 8 4 SSW 1025,2 10
14.12.2018 03:00:00 10,9 1,8 11 6 S 1026,0 10
14.12.2018 02:00:00 11,2 2,1 15 8 SSW 1026,2 10
14.12.2018 01:00:00 10,7 2,0 15 8 SSW 1026,0 10
14.12.2018 00:00:00 10,8 2,0 13 7 S 1016,3 10
13.12.2018 23:00:00 11,9 2,8 0 0 N 1026,2 10
13.12.2018 22:00:00 12,2 2,5 8 4 SSW 1026,1 10
13.12.2018 21:00:00 12,1 3,7 13 7 S 1025,9 10
13.12.2018 20:00:00 11,0 4,0 13 7 S 1025,6 10
13.12.2018 19:00:00 11,4 3,8 9 5 S 1025,4 10
13.12.2018 18:00:00 12,3 4,3 11 6 SSW 1025,1 10
13.12.2018 17:00:00 13,0 4,2 8 4 SW 1024,8 10
13.12.2018 16:00:00 15,0 3,6 13 7 W 1024,4 10
13.12.2018 15:00:00 15,5 3,9 9 5 W 1024,1 10
13.12.2018 14:00:00 15,4 3,4 24 13 WSW 1023,9 10
13.12.2018 13:00:00 15,4 3,3 18 10 WNW 1024,0 10
13.12.2018 12:00:00 15,3 2,3 29 16 W 1024,1 10
13.12.2018 11:00:00 15,4 2,0 24 13 WNW 1024,3 10
13.12.2018 10:00:00 15,4 2,1 31 17 WNW 1024,4 10
13.12.2018 09:00:00 14,7 2,7 11 6 WSW 1024,0 10
13.12.2018 08:00:00 13,5 2,0 13 7 WSW 1023,1 10
13.12.2018 07:00:00 13,4 2,4 13 7 WSW 1022,3 10
13.12.2018 06:00:00 13,7 3,2 13 7 SW 1021,8 10
13.12.2018 05:00:00 13,8 2,7 13 7 WSW 1020,9 10
13.12.2018 04:00:00 13,8 3,5 13 7 W 1020,7 10
13.12.2018 03:00:00 14,5 3,5 13 7 WSW 1020,1 10
13.12.2018 02:00:00 14,9 3,0 11 6 W 1019,6 10
13.12.2018 01:00:00 14,6 3,7 5 3 SW 1019,0 10
13.12.2018 00:00:00 15,0 2,6 15 8 WSW 1018,9 10
12.12.2018 23:00:00 15,1 2,2 22 12 W 1018,5 10
12.12.2018 22:00:00 15,0 3,4 21 11 W 1017,9 10
12.12.2018 21:00:00 14,9 3,9 22 12 WSW 1017,6 10
12.12.2018 20:00:00 14,8 4,4 31 17 W 1016,5 10
12.12.2018 19:00:00 15,0 4,2 41 22 W 1015,8 10
12.12.2018 18:00:00 15,4 4,8 29 16 W 1015,7 10
12.12.2018 17:00:00 15,5 5,3 29 16 W 1015,2 10
12.12.2018 16:00:00 15,6 4,6 37 20 WSW 1014,5 10
12.12.2018 15:00:00 15,8 4,8 48 26 W 1014,4 10
12.12.2018 14:00:00 16,5 5,7 26 14 W 1013,7 10
12.12.2018 13:00:00 16,7 6,5 37 20 WSW 1013,6 10
12.12.2018 12:00:00 16,2 8,6 22 12 WSW 1013,6 10
12.12.2018 11:00:00 16,6 7,2 46 25 WSW 1013,3 10
12.12.2018 10:00:00 16,1 7,0 48 26 SW 1013,6 10
12.12.2018 09:00:00 18,0 4,2 22 12 WSW 1013,0 10
12.12.2018 08:00:00 17,6 6,3 29 16 WSW 1012,8 10
12.12.2018 07:00:00 17,5 6,7 22 12 W 1012,6 10
12.12.2018 06:00:00 17,1 7,4 22 12 WSW 1011,9 10
12.12.2018 05:00:00 17,5 6,1 0 0 N 1011,3 10
12.12.2018 04:00:00 - - - - - - -
12.12.2018 03:00:00 - - - - - - -
12.12.2018 02:00:00 13,0 9,2 0 0 N 1011,9 10
12.12.2018 01:00:00 - - - - - - -
12.12.2018 00:00:00 - - - - - - -
11.12.2018 23:00:00 17,0 10,2 0 0 N 1012,9 10
11.12.2018 22:00:00 15,0 10,1 0 0 N 1014,2 10
11.12.2018 21:00:00 15,1 10,9 0 0 N 1014,2 10
11.12.2018 20:00:00 15,4 9,3 8 4 ESE 1013,8 10
11.12.2018 19:00:00 15,9 9,2 0 0 N 1014,2 10
11.12.2018 18:00:00 18,0 7,9 18 10 SSW 1014,6 10
11.12.2018 17:00:00 17,0 9,0 18 10 W 1014,0 10
11.12.2018 16:00:00 18,0 9,0 18 10 W 1014,2 10
11.12.2018 15:00:00 18,5 9,2 29 16 W 1014,2 10
11.12.2018 14:00:00 19,0 8,4 26 14 W 1014,3 10
11.12.2018 13:00:00 18,1 8,2 37 20 W 1013,9 10
11.12.2018 12:00:00 18,1 7,0 22 12 W 1014,7 10
11.12.2018 11:00:00 16,6 9,4 22 12 WNW 1014,9 10
11.12.2018 10:00:00 17,6 10,0 22 12 WSW 1014,7 10
11.12.2018 09:00:00 17,0 8,7 11 6 W 1014,4 10
11.12.2018 08:00:00 16,9 8,2 18 10 W 1012,7 10
11.12.2018 07:00:00 - - - - - - -
11.12.2018 06:00:00 - - - - - - -
11.12.2018 05:00:00 - - - - - - -
11.12.2018 04:00:00 - - - - - - -
11.12.2018 03:00:00 - - - - - - -
11.12.2018 02:00:00 20,4 7,2 48 26 SW 1010,5 10
11.12.2018 01:00:00 - - - - - - -
11.12.2018 00:00:00 - - - - - - -
10.12.2018 23:00:00 17,9 9,9 15 8 S 1012,1 10
10.12.2018 22:00:00 18,9 9,9 16 9 S 1012,5 10
10.12.2018 21:00:00 18,8 8,5 29 16 SE 1012,1 10
10.12.2018 20:00:00 17,5 8,2 0 0 N 1013,2 10
10.12.2018 19:00:00 18,5 7,3 11 6 SSE 1013,6 10
10.12.2018 18:00:00 18,8 6,7 13 7 SSW 1014,0 10
10.12.2018 17:00:00 19,3 6,9 8 4 SSE 1014,2 10
10.12.2018 16:00:00 19,6 6,0 22 12 W 1014,1 10
10.12.2018 15:00:00 20,4 - 11 6 W 1014,1 10
10.12.2018 14:00:00 20,5 - 16 9 SSW 1013,9 10
10.12.2018 13:00:00 20,9 8,8 15 8 WSW 1014,0 10
10.12.2018 12:00:00 20,1 9,0 5 3 S 1014,4 10
10.12.2018 11:00:00 19,6 9,4 8 4 SW 1015,3 10
10.12.2018 10:00:00 18,9 9,9 8 4 SSW 1015,6 10
10.12.2018 09:00:00 17,8 9,3 11 6 S 1015,3 10
10.12.2018 08:00:00 15,7 9,8 11 6 S 1015,1 10
10.12.2018 07:00:00 15,2 10,4 9 5 W 1015,0 10
10.12.2018 06:00:00 15,4 9,9 5 3 S 1015,1 8
10.12.2018 05:00:00 16,8 10,2 16 9 E 1014,7 10
10.12.2018 04:00:00 14,8 9,7 5 3 S 1015,5 10
10.12.2018 03:00:00 14,7 9,4 8 4 S 1015,9 10
10.12.2018 02:00:00 - - - - - - -
10.12.2018 01:00:00 15,0 9,0 11 6 SSE 1017,0 10
10.12.2018 00:00:00 - - - - - - -
09.12.2018 23:00:00 15,8 8,3 8 4 SSE 1018,1 10

tt = temperature
td = dewpoint
ff = wind speed
dd = wind direction
ppp = reduced air pressure
vv = visibility

Next stations